Location: Okie-Tex Star Party
(36.8978°N, 102.9520°W)
Time: 20:59:47
(UTC-06:00)

Daily predictions for brighter satellites

Satellite Brightness Start Highest point End
(mag) Time Altitude Azimuth Time Altitude Azimuth Time Altitude Azimuth
Milstar 3 4.2 18:25:02 10° WSW 18:31:35 34° SSW 18:37:34 10° SE
Cosmos 540 Rocket 3.9 18:27:41 10° SSW 18:32:49 67° WNW 18:37:59 10° NNE
Cosmos 2058 2.9 18:32:24 10° S 18:36:28 68° E 18:40:32 10° NNE
Cosmos 1515 Rocket 4.3 18:32:33 10° NNW 18:36:56 59° W 18:41:16 10° S
CORIOLIS 4.2 18:32:39 10° SSE 18:38:00 87° W 18:43:23 10° NNW
Cosmos 1805 Rocket 4.0 18:36:49 10° SSE 18:41:01 43° E 18:45:16 10° NNE
Cosmos 1461 2.9 18:38:54 10° SSW 18:43:08 88° WNW 18:47:14 10° NNE
SKYMED 2 3.6 18:41:44 10° NNE 18:46:02 59° E 18:50:18 10° S
USA 215 4.2 18:41:46 10° E 18:47:09 28° NNE 18:52:31 10° NNW
Cosmos 1626 2.7 18:44:18 10° SSE 18:47:43 35° E 18:51:10 10° NNE
Sich 1 3.6 18:49:50 10° SSE 18:53:56 38° E 18:58:03 10° NNE
BREEZE-M DEB (TANK) 3.4 18:52:25 10° W 18:54:49 22° NNW 18:56:38 10° NNE
Meteor 1-11 4.4 18:49:19 10° SSW 18:54:59 79° W 19:00:47 10° N
Cosmos 1356 Rocket 3.5 18:52:38 10° S 18:56:28 47° E 19:00:19 10° NNE
Lacrosse 5 rocket 1.6 18:53:22 10° NW 18:57:10 66° SW 19:01:10 10° SSE
Aureole 1 Rocket 4.2 18:53:02 10° SSE 18:57:56 42° E 19:04:17 10° NNE
CZ-2C R/B 4.1 18:53:44 10° SSW 18:58:20 38° W 19:02:49 10° NNW
Cosmos 2180 Rocket 4.4 18:52:41 10° N 18:58:52 69° E 19:05:04 10° SSE
Cosmos 2219 Rocket 4.3 18:55:43 10° WSW 19:00:08 23° WNW 19:04:34 10° N
ALOS 3.6 18:58:50 10° ESE 19:01:59 18° ENE 19:05:09 10° NNE
Coronas F rocket 2.1 19:01:40 10° SSE 19:03:39 23° E 19:03:52 23° E
Cosmos 1726 3.9 19:00:43 10° NNW 19:04:12 36° W 19:07:40 10° SSW
Cosmos 1633 Rocket 3.4 19:00:11 10° SSE 19:04:22 44° E 19:08:32 10° NNE
Cosmos 2333 Rocket 4.2 19:02:34 10° WSW 19:07:12 26° WNW 19:11:54 10° N
Cosmos 1603 4.3 19:02:35 10° SSE 19:07:35 35° ESE 19:12:04 13° NE
Cosmos 1092 Rocket 4.4 19:03:08 10° SSE 19:08:59 41° E 19:14:52 10° NNE
Cosmos 1455 2.4 19:08:38 10° N 19:12:18 45° E 19:15:59 10° SSE
Cosmos 2278 Rocket 3.7 19:11:34 10° NW 19:16:49 40° WSW 19:22:02 10° S
Cosmos 1184 Rocket 2.7 19:15:20 10° S 19:18:39 71° E 19:21:58 10° NNE
Cosmos 1703 3.8 19:15:28 10° SSW 19:19:18 59° W 19:23:09 10° N
SJ-6B 3.0 19:19:32 10° SSE 19:23:29 50° ENE 19:27:29 10° N
USA 229 DEB 3.6 19:21:36 10° SSW 19:28:26 80° ESE 19:34:38 14° NE
USA 229 3.6 19:21:42 10° SSW 19:28:32 80° ESE 19:34:42 14° NE
Spot 2 Rocket 4.1 19:24:11 10° SE 19:28:36 32° ENE 19:33:03 10° N
Iridium 4 Rocket 3.1 19:27:32 10° SSE 19:31:55 52° E 19:36:03 10° NNE
Cosmos 1707 Rocket 3.8 19:28:06 10° NNW 19:32:25 71° W 19:36:44 10° S
COSMO-SKYMED 1 4.1 19:30:00 10° N 19:33:59 37° WNW 19:37:57 10° SW
FREGAT/IRIS 2.4 19:35:59 10° SSE 19:39:01 80° ENE 19:42:05 10° N
Cosmos 1666 Rocket 4.3 19:36:18 10° SSW 19:40:32 54° W 19:44:51 10° N
SL-19 R/B 4.3 19:36:01 10° SSE 19:41:46 57° ENE 19:47:14 10° N
NOSS 3-1 (A) 4.3 19:38:02 10° SSE 19:42:21 26° ESE 19:42:21 26° ESE
Cosmos 2369 Rocket 3.6 19:40:03 10° N 19:42:51 20° NNE 19:42:51 20° NNE
SL-16 R/B 3.6 19:41:35 10° SW 19:46:45 36° WNW 19:51:58 10° N
Resurs 01 Rocket 1.7 19:46:12 10° SSE 19:50:31 52° ENE 19:54:51 10° N
Cosmos 1933 Rocket 3.4 19:47:38 10° S 19:52:02 69° E 19:53:46 36° NNE
Cosmos 923 Rocket 4.0 19:48:28 10° SSW 19:53:40 84° WNW 19:57:25 19° NNE
TIMED 4.5 19:54:19 10° NNW 19:58:42 83° WSW 20:03:04 10° SSE
Cosmos 1680 Rocket 3.4 19:54:51 10° SSW 20:00:04 84° ESE 20:02:29 33° NNE
Tiangong 1 2.5 19:58:24 10° WSW 20:00:16 35° WSW 20:00:16 35° WSW
Lacrosse 4 Rocket 1.2 19:57:33 10° NNW 20:01:37 90° NNW 20:01:46 83° SSE
Genesis I 4.5 19:59:40 10° SSW 20:01:52 30° S 20:01:52 30° S
Cosmos 1655 Rocket 4.0 19:59:57 10° S 20:06:09 58° E 20:09:16 30° NNE
Cosmos 1869 3.9 20:03:14 10° NNW 20:07:12 56° W 20:11:09 10° S
Cosmos 1627 Rocket 4.3 20:02:07 10° S 20:08:18 80° E 20:14:27 10° N
FENGYUN 3A 3.5 20:05:22 10° SSE 20:10:43 89° ENE 20:16:08 10° NNW
Cosmos 1470 Rocket 4.0 20:09:19 10° SSW 20:13:36 58° W 20:15:29 31° NNW
NOSS 3-1 (C) 3.2 20:14:22 10° SSW 20:20:02 73° ESE 20:20:19 71° E
Cosmos 1943 3.2 20:18:44 10° SSW 20:23:49 68° SSE 20:23:49 68° SSE
USA 215 3.1 20:28:14 61° SE 20:29:32 85° NE 20:36:07 10° NW
ATLAS 5 CENTAUR R/B 4.3 20:27:37 10° N 20:28:57 15° N 20:28:57 15° N
Cosmos 2026 Rocket 4.2 20:29:08 10° SSW 20:35:19 69° W 20:40:53 13° N
ALOS 3.5 20:34:42 10° SSW 20:39:05 40° W 20:43:29 10° NNW
Cosmos 2369 Rocket 4.5 21:23:22 10° NW 21:24:42 17° NW 21:24:42 17° NW
